Location: B?dimalle
(17.1788°N, 80.5377°E)
Time: 10:42:04
(UTC+00:00)

Tiros 1 despin weight - Pass Details

Date: 16 February 2026
Orbit: 556 x 593 km, 48.2° (Epoch: 10 March)

Event Time Altitude Azimuth Distance (km) Brightness Sun altitude
Rises 17:20:36 0° 328° (NNW) 2,740 - -67.4°
Reaches altitude 10° 17:22:58 10° 336° (NNW) 1,849 - -67.9°
Maximum altitude 17:26:55 39° 46° (NE) 859 - -68.9°
Drops below altitude 10° 17:30:56 10° 115° (ESE) 1,869 - -69.8°
Sets 17:33:19 0° 123° (ESE) 2,774 - -70.4°
